Time,TemperatureF,DewpointF,PressureIn,WindDirection,WindDirectionDegrees,WindSpeedMPH,WindSpeedGustMPH,Humidity,HourlyPrecipIn,Conditions,Clouds,dailyrainin,SoftwareType,DateUTC
2013-02-26 00:11:00,27.3,23.0,30.29,WSW,253,0.0,0.0,84,0.00,,,0.00,weatherlink.com 1.10,2013-02-26 08:11:00,
2013-02-26 00:26:00,26.9,23.0,30.29,SSW,192,3.0,6.0,84,0.00,,,0.00,weatherlink.com 1.10,2013-02-26 08:26:00,
2013-02-26 00:41:00,26.9,22.0,30.29,SSW,192,0.0,0.0,82,0.00,,,0.00,weatherlink.com 1.10,2013-02-26 08:41:00,
2013-02-26 00:57:00,25.7,21.0,30.29,SSW,192,0.0,5.0,83,0.00,,,0.00,weatherlink.com 1.10,2013-02-26 08:57:00,
2013-02-26 01:12:00,24.5,20.0,30.29,SSW,192,0.0,0.0,84,0.00,,,0.00,weatherlink.com 1.10,2013-02-26 09:12:00,
2013-02-26 01:27:00,24.8,20.0,30.30,SSW,192,0.0,7.0,83,0.00,,,0.00,weatherlink.com 1.10,2013-02-26 09:27:00,
2013-02-26 01:42:00,23.9,20.0,30.30,SSE,161,4.0,6.0,84,0.00,,,0.00,weatherlink.com 1.10,2013-02-26 09:42:00,
2013-02-26 01:57:00,24.8,21.0,30.30,SSE,156,0.0,0.0,86,0.00,,,0.00,weatherlink.com 1.10,2013-02-26 09:57:00,
2013-02-26 02:12:00,25.1,21.0,30.30,SSE,152,0.0,5.0,85,0.00,,,0.00,weatherlink.com 1.10,2013-02-26 10:12:00,
2013-02-26 02:29:00,26.2,21.0,30.30,SSE,157,0.0,0.0,82,0.00,,,0.00,weatherlink.com 1.10,2013-02-26 10:29:00,
2013-02-26 02:44:00,24.9,20.0,30.30,SSE,158,0.0,0.0,82,0.00,,,0.00,weatherlink.com 1.10,2013-02-26 10:44:00,
2013-02-26 02:59:00,24.3,20.0,30.30,SSE,149,4.0,5.0,82,0.00,,,0.00,weatherlink.com 1.10,2013-02-26 10:59:00,
2013-02-26 03:14:00,25.0,21.0,30.30,SSE,147,0.0,0.0,85,0.00,,,0.00,weatherlink.com 1.10,2013-02-26 11:14:00,
2013-02-26 03:28:00,26.3,21.0,30.30,SSE,152,0.0,7.0,80,0.00,,,0.00,weatherlink.com 1.10,2013-02-26 11:28:00,
2013-02-26 03:44:00,25.2,20.0,30.30,SSE,155,0.0,6.0,81,0.00,,,0.00,weatherlink.com 1.10,2013-02-26 11:44:00,
2013-02-26 03:59:00,25.4,21.0,30.30,SSE,155,0.0,0.0,83,0.00,,,0.00,weatherlink.com 1.10,2013-02-26 11:59:00,
2013-02-26 04:14:00,26.0,21.0,30.30,SSE,156,0.0,0.0,81,0.00,,,0.00,weatherlink.com 1.10,2013-02-26 12:14:00,
2013-02-26 04:29:00,25.8,21.0,30.31,SSE,156,0.0,3.0,81,0.00,,,0.00,weatherlink.com 1.10,2013-02-26 12:29:00,
2013-02-26 04:44:00,26.0,21.0,30.31,SSE,156,0.0,0.0,81,0.00,,,0.00,weatherlink.com 1.10,2013-02-26 12:44:00,
2013-02-26 04:59:00,26.3,21.0,30.32,SSE,157,3.0,3.0,80,0.00,,,0.00,weatherlink.com 1.10,2013-02-26 12:59:00,
2013-02-26 05:14:00,25.8,20.0,30.31,SSE,156,0.0,6.0,80,0.00,,,0.00,weatherlink.com 1.10,2013-02-26 13:14:00,
2013-02-26 05:29:00,26.0,21.0,30.32,SSE,160,0.0,6.0,81,0.00,,,0.00,weatherlink.com 1.10,2013-02-26 13:29:00,
2013-02-26 05:45:00,25.2,20.0,30.32,SSE,160,0.0,5.0,81,0.00,,,0.00,weatherlink.com 1.10,2013-02-26 13:45:00,
2013-02-26 06:00:00,24.5,19.0,30.33,SSE,162,0.0,5.0,80,0.00,,,0.00,weatherlink.com 1.10,2013-02-26 14:00:00,
2013-02-26 06:15:00,24.0,20.0,30.33,SSE,165,0.0,6.0,83,0.00,,,0.00,weatherlink.com 1.10,2013-02-26 14:15:00,
2013-02-26 06:30:00,24.0,20.0,30.34,SSE,165,0.0,0.0,83,0.00,,,0.00,weatherlink.com 1.10,2013-02-26 14:30:00,
2013-02-26 06:45:00,23.7,18.0,30.34,SSE,165,0.0,5.0,80,0.00,,,0.00,weatherlink.com 1.10,2013-02-26 14:45:00,
2013-02-26 07:00:00,23.0,19.0,30.34,SSE,166,0.0,0.0,84,0.00,,,0.00,weatherlink.com 1.10,2013-02-26 15:00:00,
2013-02-26 07:16:00,23.6,19.0,30.34,SSE,165,0.0,0.0,83,0.00,,,0.00,weatherlink.com 1.10,2013-02-26 15:16:00,
2013-02-26 07:30:00,24.3,20.0,30.34,SSE,166,0.0,0.0,82,0.00,,,0.00,weatherlink.com 1.10,2013-02-26 15:30:00,
2013-02-26 07:46:00,25.0,21.0,30.35,SSE,166,0.0,0.0,83,0.00,,,0.00,weatherlink.com 1.10,2013-02-26 15:46:00,
2013-02-26 08:01:00,26.6,22.0,30.35,SSE,165,0.0,0.0,83,0.00,,,0.00,weatherlink.com 1.10,2013-02-26 16:01:00,
2013-02-26 08:16:00,28.1,23.0,30.35,SSE,166,0.0,0.0,82,0.00,,,0.00,weatherlink.com 1.10,2013-02-26 16:16:00,
2013-02-26 08:31:00,28.9,23.0,30.35,South,188,2.0,3.0,78,0.00,,,0.00,weatherlink.com 1.10,2013-02-26 16:31:00,
2013-02-26 08:46:00,29.6,23.0,30.36,West,280,4.0,8.0,76,0.00,,,0.00,weatherlink.com 1.10,2013-02-26 16:46:00,
2013-02-26 09:02:00,30.6,24.0,30.36,West,279,0.0,7.0,76,0.00,,,0.00,weatherlink.com 1.10,2013-02-26 17:02:00,
2013-02-26 09:17:00,32.4,25.0,30.35,WSW,254,4.0,7.0,73,0.00,,,0.00,weatherlink.com 1.10,2013-02-26 17:17:00,
2013-02-26 09:32:00,33.9,25.0,30.35,WSW,257,5.0,8.0,69,0.00,,,0.00,weatherlink.com 1.10,2013-02-26 17:32:00,
2013-02-26 09:47:00,35.5,25.0,30.34,SSW,206,0.0,7.0,67,0.00,,,0.00,weatherlink.com 1.10,2013-02-26 17:47:00,
2013-02-26 10:02:00,36.7,25.0,30.34,WSW,247,5.0,8.0,64,0.00,,,0.00,weatherlink.com 1.10,2013-02-26 18:02:00,
2013-02-26 10:17:00,37.3,25.0,30.33,WSW,248,4.0,7.0,62,0.00,,,0.00,weatherlink.com 1.10,2013-02-26 18:17:00,
2013-02-26 10:32:00,38.5,25.0,30.32,WSW,253,0.0,8.0,58,0.00,,,0.00,weatherlink.com 1.10,2013-02-26 18:32:00,
2013-02-26 10:49:00,41.3,23.0,30.32,South,190,6.0,12.0,49,0.00,,,0.00,weatherlink.com 1.10,2013-02-26 18:49:00,
2013-02-26 11:04:00,42.3,24.0,30.31,SSE,165,3.0,8.0,48,0.00,,,0.00,weatherlink.com 1.10,2013-02-26 19:04:00,
2013-02-26 11:20:00,41.7,24.0,30.30,WNW,290,6.0,11.0,50,0.00,,,0.00,weatherlink.com 1.10,2013-02-26 19:20:00,
2013-02-26 11:35:00,42.3,24.0,30.30,NW,306,2.0,11.0,49,0.00,,,0.00,weatherlink.com 1.10,2013-02-26 19:35:00,
2013-02-26 11:49:00,42.6,23.0,30.29,WSW,250,2.0,10.0,47,0.00,,,0.00,weatherlink.com 1.10,2013-02-26 19:49:00,
2013-02-26 12:05:00,43.7,22.0,30.29,SW,227,0.0,10.0,42,0.00,,,0.00,weatherlink.com 1.10,2013-02-26 20:05:00,
2013-02-26 12:19:00,44.1,21.0,30.29,West,269,6.0,13.0,40,0.00,,,0.00,weatherlink.com 1.10,2013-02-26 20:19:00,
2013-02-26 12:34:00,44.5,22.0,30.28,West,259,7.0,10.0,41,0.00,,,0.00,weatherlink.com 1.10,2013-02-26 20:34:00,
2013-02-26 12:50:00,45.4,21.0,30.28,West,271,7.0,7.0,38,0.00,,,0.00,weatherlink.com 1.10,2013-02-26 20:50:00,
2013-02-26 13:05:00,46.2,18.0,30.27,South,191,0.0,8.0,33,0.00,,,0.00,weatherlink.com 1.10,2013-02-26 21:05:00,
2013-02-26 13:20:00,47.2,17.0,30.27,SE,137,4.0,10.0,30,0.00,,,0.00,weatherlink.com 1.10,2013-02-26 21:20:00,
2013-02-26 13:35:00,46.5,16.0,30.27,West,264,0.0,9.0,29,0.00,,,0.00,weatherlink.com 1.10,2013-02-26 21:35:00,
2013-02-26 13:50:00,47.3,15.0,30.27,SSW,198,0.0,9.0,27,0.00,,,0.00,weatherlink.com 1.10,2013-02-26 21:50:00,
2013-02-26 14:06:00,48.3,17.0,30.26,South,188,5.0,7.0,29,0.00,,,0.00,weatherlink.com 1.10,2013-02-26 22:06:00,
2013-02-26 14:21:00,48.3,16.0,30.26,SSW,194,1.0,8.0,27,0.00,,,0.00,weatherlink.com 1.10,2013-02-26 22:21:00,
2013-02-26 14:36:00,48.3,15.0,30.24,SSW,196,0.0,8.0,26,0.00,,,0.00,weatherlink.com 1.10,2013-02-26 22:36:00,
2013-02-26 14:51:00,48.4,16.0,30.23,SSE,152,0.0,10.0,27,0.00,,,0.00,weatherlink.com 1.10,2013-02-26 22:51:00,
2013-02-26 15:06:00,48.7,15.0,30.23,South,186,6.0,7.0,26,0.00,,,0.00,weatherlink.com 1.10,2013-02-26 23:06:00,
2013-02-26 15:21:00,49.0,14.0,30.23,SSW,208,4.0,7.0,25,0.00,,,0.00,weatherlink.com 1.10,2013-02-26 23:21:00,
2013-02-26 15:36:00,49.5,15.0,30.24,SSW,199,0.0,8.0,25,0.00,,,0.00,weatherlink.com 1.10,2013-02-26 23:36:00,
2013-02-26 15:51:00,49.3,14.0,30.23,SSW,199,0.0,0.0,24,0.00,,,0.00,weatherlink.com 1.10,2013-02-26 23:51:00,
2013-02-26 16:06:00,48.8,15.0,30.23,SSW,199,0.0,0.0,26,0.00,,,0.00,weatherlink.com 1.10,2013-02-27 00:06:00,
2013-02-26 16:21:00,48.7,17.0,30.22,SSW,199,0.0,0.0,28,0.00,,,0.00,weatherlink.com 1.10,2013-02-27 00:21:00,
2013-02-26 16:36:00,48.4,17.0,30.22,SSW,199,0.0,0.0,29,0.00,,,0.00,weatherlink.com 1.10,2013-02-27 00:36:00,
2013-02-26 16:51:00,47.9,17.0,30.21,SSW,200,0.0,0.0,29,0.00,,,0.00,weatherlink.com 1.10,2013-02-27 00:51:00,
2013-02-26 17:06:00,47.1,18.0,30.22,SSW,199,0.0,0.0,31,0.00,,,0.00,weatherlink.com 1.10,2013-02-27 01:06:00,
2013-02-26 17:22:00,46.4,18.0,30.22,SSW,199,0.0,0.0,32,0.00,,,0.00,weatherlink.com 1.10,2013-02-27 01:22:00,
2013-02-26 17:37:00,44.3,21.0,30.21,SSW,199,0.0,0.0,40,0.00,,,0.00,weatherlink.com 1.10,2013-02-27 01:37:00,
2013-02-26 17:52:00,42.2,21.0,30.21,SSW,199,0.0,0.0,43,0.00,,,0.00,weatherlink.com 1.10,2013-02-27 01:52:00,
2013-02-26 18:08:00,40.7,21.0,30.21,SSW,199,0.0,0.0,45,0.00,,,0.00,weatherlink.com 1.10,2013-02-27 02:08:00,
2013-02-26 18:23:00,39.2,21.0,30.21,SSW,199,0.0,0.0,49,0.00,,,0.00,weatherlink.com 1.10,2013-02-27 02:23:00,
2013-02-26 18:37:00,37.7,22.0,30.21,SSE,168,0.0,1.0,53,0.00,,,0.00,weatherlink.com 1.10,2013-02-27 02:37:00,
2013-02-26 18:52:00,37.7,21.0,30.21,SSE,168,0.0,0.0,52,0.00,,,0.00,weatherlink.com 1.10,2013-02-27 02:52:00,
2013-02-26 19:24:00,37.6,21.0,30.23,SSE,168,0.0,0.0,52,0.00,,,0.00,weatherlink.com 1.10,2013-02-27 03:24:00,
2013-02-26 19:39:00,38.4,21.0,30.23,SSE,168,0.0,0.0,50,0.00,,,0.00,weatherlink.com 1.10,2013-02-27 03:39:00,
2013-02-26 19:54:00,38.8,21.0,30.22,SE,138,0.0,0.0,50,0.00,,,0.00,weatherlink.com 1.10,2013-02-27 03:54:00,
2013-02-26 20:09:00,39.0,22.0,30.23,SE,135,0.0,0.0,51,0.00,,,0.00,weatherlink.com 1.10,2013-02-27 04:09:00,
2013-02-26 20:24:00,38.9,24.0,30.23,SE,136,0.0,0.0,56,0.00,,,0.00,weatherlink.com 1.10,2013-02-27 04:24:00,
2013-02-26 20:39:00,39.4,26.0,30.23,SE,135,0.0,0.0,58,0.00,,,0.00,weatherlink.com 1.10,2013-02-27 04:39:00,
2013-02-26 20:54:00,39.5,26.0,30.24,SE,136,0.0,0.0,58,0.00,,,0.00,weatherlink.com 1.10,2013-02-27 04:54:00,
2013-02-26 21:09:00,39.2,27.0,30.23,SE,136,0.0,0.0,61,0.00,,,0.00,weatherlink.com 1.10,2013-02-27 05:09:00,
2013-02-26 21:24:00,38.4,27.0,30.23,SE,136,0.0,1.0,63,0.00,,,0.00,weatherlink.com 1.10,2013-02-27 05:24:00,
2013-02-26 21:39:00,37.5,27.0,30.23,SE,136,0.0,0.0,65,0.00,,,0.00,weatherlink.com 1.10,2013-02-27 05:39:00,
2013-02-26 21:54:00,37.7,26.0,30.23,SE,136,0.0,0.0,64,0.00,,,0.00,weatherlink.com 1.10,2013-02-27 05:54:00,
2013-02-26 22:09:00,37.5,26.0,30.23,SE,136,0.0,0.0,63,0.00,,,0.00,weatherlink.com 1.10,2013-02-27 06:09:00,
2013-02-26 22:25:00,37.5,24.0,30.23,SE,135,0.0,0.0,58,0.00,,,0.00,weatherlink.com 1.10,2013-02-27 06:25:00,
2013-02-26 22:40:00,37.1,24.0,30.23,SE,136,0.0,0.0,60,0.00,,,0.00,weatherlink.com 1.10,2013-02-27 06:40:00,
2013-02-26 22:55:00,37.0,22.0,30.23,SE,135,0.0,0.0,56,0.00,,,0.00,weatherlink.com 1.10,2013-02-27 06:55:00,
2013-02-26 23:10:00,36.0,22.0,30.23,SE,136,0.0,1.0,56,0.00,,,0.00,weatherlink.com 1.10,2013-02-27 07:10:00,
2013-02-26 23:25:00,35.2,21.0,30.23,SE,136,0.0,0.0,57,0.00,,,0.00,weatherlink.com 1.10,2013-02-27 07:25:00,
2013-02-26 23:40:00,34.4,21.0,30.23,SE,136,0.0,0.0,58,0.00,,,0.00,weatherlink.com 1.10,2013-02-27 07:40:00,
2013-02-26 23:55:00,33.2,21.0,30.22,SE,135,0.0,0.0,60,0.00,,,0.00,weatherlink.com 1.10,2013-02-27 07:55:00,